NOS861 LIRF-EPGD

Flight info

Callsign NOS861
Flight time 1h 54m
Altitude 40000
Route TIBER DCT INTUD DCT IBENI/N0481F390 DCT ALIVO DCT NAVTI DCT DESEN DCT BIBKA N133 GRUDA Z95 OSLOG
Aircraft B789/H-SDE1E2E3FGHIJ2J3J4J5M1RWXY/LB1D1

Departure

Time 2026-05-05 16:30
Airport Rome–Fiumicino Leonardo da Vinci International Airport (LIRF)

Arrival

Time 2026-05-05 18:24
Airport Gdańsk Lech Wałęsa Airport (EPGD)
Time Latitude Longitude Altitude Speed Heading
2026-05-05 16:06 41.78863 12.24216 21 ft 0 kts 160°
2026-05-05 16:18 41.78904 12.24207 23 ft 3 kts 187°
2026-05-05 16:19 41.78923 12.24215 23 ft 3 kts 206°
2026-05-05 16:19 41.78940 12.24230 23 ft 3 kts 225°
2026-05-05 16:19 41.78967 12.24293 23 ft 7 kts 250°
2026-05-05 16:20 41.78970 12.24275 23 ft 2 kts 283°
2026-05-05 16:20 41.78980 12.24234 21 ft 2 kts 266°
2026-05-05 16:21 41.78967 12.24202 21 ft 2 kts 221°
2026-05-05 16:22 41.78945 12.24174 20 ft 0 kts 241°
2026-05-05 16:23 41.78962 12.24055 20 ft 11 kts 319°
2026-05-05 16:23 41.79030 12.24022 23 ft 15 kts 343°
2026-05-05 16:23 41.79318 12.23901 25 ft 26 kts 343°
2026-05-05 16:24 41.79503 12.23824 22 ft 30 kts 342°
2026-05-05 16:24 41.79714 12.23734 20 ft 34 kts 343°
2026-05-05 16:24 41.79926 12.23782 24 ft 15 kts 73°
2026-05-05 16:25 41.79972 12.23954 19 ft 21 kts 73°
2026-05-05 16:25 41.80053 12.24314 17 ft 21 kts 68°
2026-05-05 16:25 41.80117 12.24537 20 ft 26 kts 69°
2026-05-05 16:26 41.80208 12.24965 26 ft 20 kts 88°
2026-05-05 16:26 41.80327 12.25511 25 ft 38 kts 69°
2026-05-05 16:27 41.80418 12.25840 20 ft 37 kts 71°
2026-05-05 16:27 41.80549 12.26307 25 ft 59 kts 70°
2026-05-05 16:27 41.80685 12.26806 18 ft 55 kts 71°
2026-05-05 16:27 41.80787 12.27044 16 ft 14 kts
2026-05-05 16:28 41.80875 12.27006 16 ft 16 kts 340°
2026-05-05 16:28 41.80953 12.26945 17 ft 7 kts 292°
2026-05-05 16:28 41.80950 12.26910 17 ft 3 kts 255°
2026-05-05 16:28 41.80938 12.26856 17 ft 11 kts 250°
2026-05-05 16:29 41.80933 12.26835 19 ft 1 kts 250°
2026-05-05 16:29 41.80932 12.26834 19 ft 1 kts 250°
2026-05-05 16:29 41.80868 12.26605 19 ft 63 kts 250°
2026-05-05 16:29 41.80621 12.25711 21 ft 141 kts 250°
2026-05-05 16:30 41.80204 12.24229 362 ft 181 kts 238°
2026-05-05 16:30 41.79325 12.23005 1217 ft 196 kts 199°
2026-05-05 16:30 41.77959 12.23135 2122 ft 213 kts 155°
2026-05-05 16:30 41.76939 12.24647 2919 ft 240 kts 114°
2026-05-05 16:31 41.76668 12.26978 3822 ft 263 kts 89°
2026-05-05 16:31 41.77196 12.29348 5032 ft 271 kts 68°
2026-05-05 16:31 41.77896 12.31733 6129 ft 279 kts 73°
2026-05-05 16:31 41.78355 12.34264 7289 ft 281 kts 84°
2026-05-05 16:32 41.78545 12.36907 8370 ft 288 kts 88°
2026-05-05 16:32 41.78718 12.39602 9487 ft 294 kts 85°
2026-05-05 16:32 41.78972 12.42363 10445 ft 307 kts 84°
2026-05-05 16:32 41.79261 12.45330 10883 ft 336 kts 84°
2026-05-05 16:33 41.79552 12.48518 11281 ft 364 kts 84°
2026-05-05 16:33 41.79937 12.51956 11954 ft 378 kts 74°
2026-05-05 16:33 41.81126 12.55099 12999 ft 383 kts 50°
2026-05-05 16:33 41.83097 12.57504 13975 ft 387 kts 28°
2026-05-05 16:34 41.85575 12.58840 14892 ft 386 kts
2026-05-05 16:34 41.88248 12.59122 15742 ft 388 kts 357°
2026-05-05 16:34 41.90969 12.59080 16649 ft 392 kts 355°
2026-05-05 16:34 41.93680 12.59047 17521 ft 398 kts 358°
2026-05-05 16:35 41.96464 12.59149 18412 ft 404 kts 359°
2026-05-05 16:35 41.99295 12.59261 19199 ft 408 kts 358°
2026-05-05 16:35 42.02149 12.59318 19976 ft 412 kts 358°
2026-05-05 16:35 42.05022 12.59366 20745 ft 416 kts 358°
2026-05-05 16:36 42.07937 12.59448 21504 ft 421 kts 358°
2026-05-05 16:36 42.10877 12.59538 22225 ft 425 kts 358°
2026-05-05 16:36 42.13848 12.59614 22927 ft 429 kts 358°
2026-05-05 16:36 42.16844 12.59686 23613 ft 433 kts 358°
2026-05-05 16:37 42.19875 12.59765 24196 ft 436 kts 358°
2026-05-05 16:37 42.22882 12.59847 24779 ft 440 kts 358°
2026-05-05 16:37 42.25948 12.59992 25326 ft 444 kts
2026-05-05 16:37 42.29035 12.60329 25826 ft 447 kts 359°
2026-05-05 16:38 42.32146 12.60599 26391 ft 449 kts 359°
2026-05-05 16:38 42.35279 12.60889 26928 ft 452 kts 359°
2026-05-05 16:38 42.38429 12.61208 27464 ft 455 kts 359°
2026-05-05 16:38 42.41592 12.61522 27934 ft 459 kts 359°
2026-05-05 16:39 42.44783 12.61965 28432 ft 465 kts
2026-05-05 16:39 42.47932 12.63170 28888 ft 477 kts 16°
2026-05-05 16:39 42.50899 12.65138 29341 ft 487 kts 26°
2026-05-05 16:39 42.53810 12.67511 29719 ft 491 kts 25°
2026-05-05 16:40 42.56754 12.69919 30168 ft 495 kts 25°
2026-05-05 16:40 42.59702 12.72362 30546 ft 498 kts 25°
2026-05-05 16:40 42.62668 12.74809 30883 ft 501 kts 25°
2026-05-05 16:40 42.65658 12.77262 31259 ft 503 kts 25°
2026-05-05 16:41 42.68661 12.79734 31586 ft 505 kts 25°
2026-05-05 16:41 42.71669 12.82222 31813 ft 508 kts 25°
2026-05-05 16:41 42.74689 12.84721 32150 ft 510 kts 25°
2026-05-05 16:41 42.77689 12.87203 32475 ft 512 kts 25°
2026-05-05 16:42 42.80728 12.89720 32941 ft 511 kts 25°
2026-05-05 16:42 42.83759 12.92237 33411 ft 510 kts 25°
2026-05-05 16:42 42.86788 12.94752 33847 ft 510 kts 25°
2026-05-05 16:42 42.89810 12.97263 34281 ft 509 kts 25°
2026-05-05 16:43 42.92828 12.99777 34708 ft 506 kts 25°
2026-05-05 16:43 42.95832 13.02280 35133 ft 505 kts 25°
2026-05-05 16:43 42.98828 13.04778 35510 ft 504 kts 26°
2026-05-05 16:43 43.01773 13.07239 35923 ft 502 kts 26°
2026-05-05 16:44 43.04748 13.09728 36313 ft 501 kts 26°
2026-05-05 16:44 43.07709 13.12206 36714 ft 499 kts 26°
2026-05-05 16:44 43.10673 13.14690 37101 ft 498 kts 26°
2026-05-05 16:44 43.13623 13.17165 37471 ft 497 kts 26°
2026-05-05 16:45 43.16566 13.19638 37862 ft 495 kts 26°
2026-05-05 16:45 43.19497 13.22104 38240 ft 494 kts 26°
2026-05-05 16:45 43.22424 13.24567 38563 ft 493 kts 26°
2026-05-05 16:45 43.25341 13.27026 38863 ft 492 kts 26°
2026-05-05 16:46 43.28257 13.29487 39101 ft 492 kts 26°
2026-05-05 16:46 43.31175 13.31952 39331 ft 493 kts 26°
2026-05-05 16:46 43.34093 13.34420 39555 ft 493 kts 26°
2026-05-05 16:46 43.37015 13.36895 39799 ft 493 kts 27°
2026-05-05 16:47 43.39894 13.39336 39989 ft 494 kts 27°
2026-05-05 16:47 43.42829 13.41824 39980 ft 497 kts 27°
2026-05-05 16:47 43.48689 13.46812 39981 ft 492 kts 27°
2026-05-05 16:48 43.54490 13.51752 39984 ft 490 kts 27°
2026-05-05 16:48 43.60290 13.56707 39986 ft 490 kts 27°
2026-05-05 16:49 43.66042 13.61630 39983 ft 490 kts 27°
2026-05-05 16:49 43.71830 13.66597 39981 ft 490 kts 27°
2026-05-05 16:50 43.77620 13.71577 39981 ft 490 kts 28°
2026-05-05 16:50 43.83400 13.76559 39976 ft 490 kts 28°
2026-05-05 16:51 43.89176 13.81550 39980 ft 487 kts 28°
2026-05-05 16:51 43.94777 13.86406 39969 ft 468 kts 28°
2026-05-05 16:52 44.00265 13.91157 39978 ft 464 kts 26°
2026-05-05 16:52 44.06151 13.94680 39993 ft 464 kts 17°
2026-05-05 16:53 44.12190 13.97841 39995 ft 463 kts 17°
2026-05-05 16:53 44.18212 14.01041 39996 ft 463 kts 17°
2026-05-05 16:54 44.24187 14.04206 40002 ft 463 kts 17°
2026-05-05 16:54 44.30205 14.07407 40001 ft 463 kts 17°
2026-05-05 16:55 44.36221 14.10611 40007 ft 463 kts 17°
2026-05-05 16:55 44.42229 14.13820 40006 ft 462 kts 17°
2026-05-05 16:56 44.48239 14.17036 40005 ft 462 kts 17°
2026-05-05 16:56 44.54249 14.20259 40013 ft 463 kts 17°
2026-05-05 16:57 44.60260 14.23491 40012 ft 463 kts 17°
2026-05-05 16:57 44.66282 14.26735 40011 ft 463 kts 17°
2026-05-05 16:58 44.72246 14.29955 40023 ft 462 kts 17°
2026-05-05 16:58 44.78251 14.33204 40022 ft 463 kts 18°
2026-05-05 16:59 44.84262 14.36464 40016 ft 462 kts 18°
2026-05-05 16:59 44.90248 14.39718 40023 ft 461 kts 18°
2026-05-05 17:00 44.96227 14.42974 40021 ft 461 kts 18°
2026-05-05 17:00 45.02203 14.46237 40021 ft 460 kts 18°
2026-05-05 17:01 45.08142 14.49487 40029 ft 460 kts 18°
2026-05-05 17:01 45.14124 14.52768 40017 ft 461 kts 18°
2026-05-05 17:02 45.19993 14.55999 40017 ft 443 kts 18°
2026-05-05 17:02 45.25718 14.59145 40024 ft 445 kts 18°
2026-05-05 17:03 45.31577 14.62379 40029 ft 460 kts 18°
2026-05-05 17:03 45.37652 14.65741 40028 ft 476 kts 18°
2026-05-05 17:04 45.43878 14.69195 40027 ft 490 kts 18°
2026-05-05 17:04 45.50310 14.72771 40014 ft 503 kts 19°
2026-05-05 17:05 45.56890 14.75832 40003 ft 488 kts 14°
2026-05-05 17:05 45.63307 14.78564 39990 ft 478 kts 14°
2026-05-05 17:06 45.68614 14.80822 39982 ft 479 kts 14°
2026-05-05 17:06 45.76116 14.84025 39996 ft 490 kts 14°
2026-05-05 17:07 45.81629 14.86386 39989 ft 495 kts 14°
2026-05-05 17:07 45.88225 14.89217 39985 ft 494 kts 14°
2026-05-05 17:08 45.94770 14.92031 39982 ft 494 kts 14°
2026-05-05 17:08 46.01359 14.94872 39976 ft 495 kts 14°
2026-05-05 17:09 46.04115 14.96063 39978 ft 495 kts 14°
2026-05-05 17:09 46.10250 14.98717 39975 ft 495 kts 14°
2026-05-05 17:10 46.16798 15.01558 39969 ft 494 kts 14°
2026-05-05 17:10 46.21238 15.03487 39965 ft 494 kts 14°
2026-05-05 17:11 46.27825 15.06356 39962 ft 494 kts 14°
2026-05-05 17:11 46.34415 15.09234 39958 ft 495 kts 14°
2026-05-05 17:12 46.41008 15.12119 39953 ft 495 kts 14°
2026-05-05 17:12 46.47602 15.15013 39946 ft 495 kts 14°
2026-05-05 17:13 46.54650 15.18114 39939 ft 496 kts 14°
2026-05-05 17:13 46.61255 15.21028 39930 ft 496 kts 14°
2026-05-05 17:14 46.67861 15.23949 39915 ft 497 kts 14°
2026-05-05 17:14 46.74493 15.26891 39906 ft 498 kts 14°
2026-05-05 17:15 46.81112 15.29833 39900 ft 499 kts 14°
2026-05-05 17:15 46.87699 15.32769 39893 ft 498 kts 14°
2026-05-05 17:16 46.94330 15.35732 39892 ft 498 kts 14°
2026-05-05 17:16 47.00951 15.38698 39894 ft 497 kts 14°
2026-05-05 17:17 47.07565 15.41668 39893 ft 497 kts 14°
2026-05-05 17:17 47.14129 15.44625 39888 ft 498 kts 14°
2026-05-05 17:18 47.20749 15.47613 39881 ft 498 kts 14°
2026-05-05 17:18 47.27367 15.50609 39869 ft 498 kts 15°
2026-05-05 17:19 47.33988 15.53615 39861 ft 499 kts 15°
2026-05-05 17:19 47.40576 15.56613 39851 ft 498 kts 15°
2026-05-05 17:20 47.47190 15.59630 39847 ft 497 kts 15°
2026-05-05 17:20 47.53793 15.62651 39841 ft 497 kts 15°
2026-05-05 17:21 47.60408 15.65685 39831 ft 498 kts 14°
2026-05-05 17:22 47.70293 15.70234 39820 ft 498 kts 14°
2026-05-05 17:22 47.76916 15.73292 39791 ft 498 kts 14°
2026-05-05 17:23 47.83539 15.76358 39788 ft 499 kts 14°
2026-05-05 17:23 47.90163 15.79433 39772 ft 499 kts 15°
2026-05-05 17:24 47.96787 15.82516 39755 ft 499 kts 15°
2026-05-05 17:24 48.03445 15.85622 39754 ft 506 kts 15°
2026-05-05 17:25 48.10171 15.88772 39741 ft 507 kts 15°
2026-05-05 17:25 48.16940 15.91947 39731 ft 506 kts 15°
2026-05-05 17:26 48.23621 15.95091 39735 ft 506 kts 15°
2026-05-05 17:26 48.30388 15.98285 39734 ft 506 kts 15°
2026-05-05 17:27 48.37066 16.01444 39731 ft 507 kts 15°
2026-05-05 17:27 48.43794 16.04636 39728 ft 508 kts 15°
2026-05-05 17:28 48.50540 16.07846 39729 ft 508 kts 15°
2026-05-05 17:28 48.57283 16.11064 39723 ft 508 kts 15°
2026-05-05 17:29 48.64026 16.14289 39716 ft 508 kts 15°
2026-05-05 17:29 48.70765 16.17523 39727 ft 508 kts 15°
2026-05-05 17:30 48.77415 16.20952 39750 ft 510 kts 25°
2026-05-05 17:30 48.83641 16.26135 39720 ft 513 kts 27°
2026-05-05 17:31 48.89876 16.31443 39737 ft 513 kts 27°
2026-05-05 17:31 48.96102 16.36722 39752 ft 512 kts 27°
2026-05-05 17:32 49.02278 16.41997 39763 ft 512 kts 27°
2026-05-05 17:32 49.08487 16.47301 39777 ft 511 kts 28°
2026-05-05 17:33 49.14692 16.52625 39781 ft 511 kts 28°
2026-05-05 17:33 49.20887 16.57951 39784 ft 511 kts 28°
2026-05-05 17:34 49.27081 16.63295 39776 ft 511 kts 28°
2026-05-05 17:34 49.33225 16.68609 39778 ft 510 kts 28°
2026-05-05 17:35 49.39403 16.73969 39778 ft 510 kts 28°
2026-05-05 17:35 49.45581 16.79344 39780 ft 510 kts 28°
2026-05-05 17:36 49.51750 16.84727 39776 ft 509 kts 28°
2026-05-05 17:36 49.57863 16.90078 39777 ft 509 kts 28°
2026-05-05 17:37 49.64019 16.95481 39780 ft 509 kts 28°
2026-05-05 17:37 49.70153 17.00881 39777 ft 508 kts 28°
2026-05-05 17:38 49.76301 17.06309 39781 ft 508 kts 28°
2026-05-05 17:38 49.82434 17.11739 39781 ft 508 kts 28°
2026-05-05 17:39 49.88557 17.17178 39785 ft 508 kts 28°
2026-05-05 17:39 49.94669 17.22622 39786 ft 508 kts 28°
2026-05-05 17:40 50.00662 17.27976 39789 ft 508 kts 28°
2026-05-05 17:40 50.06787 17.33464 39782 ft 508 kts 28°
2026-05-05 17:41 50.12859 17.38920 39779 ft 507 kts 28°
2026-05-05 17:41 50.18968 17.44427 39780 ft 507 kts 28°
2026-05-05 17:42 50.25066 17.49939 39778 ft 507 kts 28°
2026-05-05 17:42 50.28250 17.52249 39805 ft 503 kts 15°
2026-05-05 17:42 50.31640 17.53581 39775 ft 503 kts
2026-05-05 17:43 50.38491 17.55339 39768 ft 502 kts
2026-05-05 17:43 50.45311 17.57753 39761 ft 503 kts 11°
2026-05-05 17:44 50.52152 17.59935 39761 ft 502 kts
2026-05-05 17:44 50.58992 17.62224 39760 ft 503 kts 10°
2026-05-05 17:45 50.65775 17.64470 39759 ft 502 kts
2026-05-05 17:45 50.72641 17.66750 39758 ft 504 kts
2026-05-05 17:46 50.79502 17.69046 39755 ft 504 kts
2026-05-05 17:46 50.86348 17.71417 39754 ft 505 kts 11°
2026-05-05 17:47 50.93175 17.74082 39755 ft 506 kts 11°
2026-05-05 17:47 50.99988 17.76614 39758 ft 506 kts 11°
2026-05-05 17:48 51.06831 17.79236 39760 ft 506 kts 11°
2026-05-05 17:48 51.13720 17.81319 39755 ft 499 kts
2026-05-05 17:49 51.20524 17.83267 39763 ft 501 kts
2026-05-05 17:49 51.27435 17.85376 39767 ft 511 kts
2026-05-05 17:50 51.34402 17.87410 39772 ft 514 kts
2026-05-05 17:50 51.41448 17.89547 39777 ft 512 kts
2026-05-05 17:51 51.48460 17.91629 39781 ft 513 kts
2026-05-05 17:51 51.55423 17.93737 39783 ft 513 kts
2026-05-05 17:52 51.62431 17.95844 39783 ft 512 kts
2026-05-05 17:52 51.69424 17.97965 39792 ft 511 kts
2026-05-05 17:53 51.76426 18.00088 39788 ft 511 kts
2026-05-05 17:53 51.83402 18.02214 39793 ft 511 kts
2026-05-05 17:54 51.90345 18.04335 39798 ft 511 kts
2026-05-05 17:54 51.97331 18.06477 39801 ft 511 kts
2026-05-05 17:55 52.04320 18.08626 39805 ft 511 kts
2026-05-05 17:55 52.11309 18.10782 39805 ft 512 kts
2026-05-05 17:56 52.18248 18.12929 39808 ft 511 kts
2026-05-05 17:56 52.25243 18.15100 39815 ft 511 kts
2026-05-05 17:56 52.28722 18.16185 39785 ft 499 kts
2026-05-05 17:57 52.32017 18.17222 39788 ft 468 kts
2026-05-05 17:57 52.34095 18.17873 39782 ft 450 kts
2026-05-05 17:57 52.38117 18.19119 39799 ft 432 kts
2026-05-05 17:58 52.42940 18.20627 39799 ft 418 kts
2026-05-05 17:58 52.46718 18.21812 39666 ft 420 kts
2026-05-05 17:58 52.49615 18.22718 39077 ft 424 kts
2026-05-05 17:58 52.52495 18.23628 38726 ft 420 kts
2026-05-05 17:59 52.55349 18.24532 38349 ft 414 kts
2026-05-05 17:59 52.58185 18.25426 37490 ft 412 kts
2026-05-05 17:59 52.60041 18.26010 37049 ft 407 kts
2026-05-05 17:59 52.62802 18.26883 36387 ft 401 kts
2026-05-05 18:00 52.65524 18.27747 35747 ft 396 kts
2026-05-05 18:00 52.68211 18.28598 35123 ft 390 kts
2026-05-05 18:00 52.71712 18.29709 34334 ft 383 kts
2026-05-05 18:00 52.74313 18.30536 33732 ft 379 kts
2026-05-05 18:01 52.76887 18.31354 33042 ft 375 kts
2026-05-05 18:01 52.78581 18.31893 32581 ft 373 kts
2026-05-05 18:01 52.81119 18.32702 31910 ft 370 kts
2026-05-05 18:01 52.83635 18.33505 31218 ft 367 kts
2026-05-05 18:02 52.86128 18.34310 30592 ft 364 kts
2026-05-05 18:02 52.88595 18.35093 29977 ft 362 kts
2026-05-05 18:02 52.91068 18.35882 29281 ft 359 kts
2026-05-05 18:02 52.93511 18.36668 28636 ft 356 kts
2026-05-05 18:03 52.95933 18.37447 27997 ft 353 kts
2026-05-05 18:03 52.98334 18.38219 27373 ft 350 kts
2026-05-05 18:03 53.00720 18.38986 26758 ft 348 kts
2026-05-05 18:03 53.03020 18.39731 26503 ft 339 kts
2026-05-05 18:04 53.05344 18.40475 26215 ft 342 kts
2026-05-05 18:04 53.07684 18.41228 25912 ft 342 kts
2026-05-05 18:04 53.10016 18.41986 25600 ft 340 kts
2026-05-05 18:04 53.12328 18.42736 25301 ft 338 kts
2026-05-05 18:05 53.14626 18.43479 25003 ft 335 kts
2026-05-05 18:05 53.16910 18.44220 24702 ft 334 kts
2026-05-05 18:05 53.19197 18.44960 24425 ft 335 kts
2026-05-05 18:05 53.21490 18.45705 24129 ft 336 kts
2026-05-05 18:06 53.23776 18.46452 23832 ft 334 kts
2026-05-05 18:06 53.25280 18.46943 23641 ft 332 kts
2026-05-05 18:06 53.28274 18.47918 23220 ft 329 kts
2026-05-05 18:06 53.30551 18.48655 22469 ft 339 kts
2026-05-05 18:07 53.32900 18.49420 21736 ft 348 kts
2026-05-05 18:07 53.35304 18.50210 20996 ft 357 kts
2026-05-05 18:07 53.37769 18.51020 20274 ft 364 kts
2026-05-05 18:07 53.40229 18.51826 19551 ft 367 kts
2026-05-05 18:08 53.42739 18.52657 18815 ft 355 kts
2026-05-05 18:08 53.45124 18.53444 18130 ft 344 kts
2026-05-05 18:08 53.47443 18.54206 17362 ft 334 kts
2026-05-05 18:08 53.49660 18.54935 16648 ft 325 kts
2026-05-05 18:09 53.51851 18.55658 15950 ft 316 kts
2026-05-05 18:09 53.53981 18.56362 15285 ft 308 kts
2026-05-05 18:09 53.56059 18.57047 14655 ft 300 kts
2026-05-05 18:09 53.58083 18.57717 14044 ft 293 kts
2026-05-05 18:10 53.60058 18.58372 13519 ft 284 kts
2026-05-05 18:10 53.61948 18.59001 13171 ft 273 kts
2026-05-05 18:10 53.63818 18.59614 12901 ft 276 kts
2026-05-05 18:10 53.65692 18.60233 12673 ft 279 kts
2026-05-05 18:11 53.67592 18.60867 12422 ft 278 kts
2026-05-05 18:11 53.69451 18.61492 12172 ft 268 kts
2026-05-05 18:11 53.71303 18.62102 11944 ft 275 kts
2026-05-05 18:11 53.73185 18.62727 11696 ft 275 kts
2026-05-05 18:12 53.75048 18.63355 11441 ft 269 kts
2026-05-05 18:12 53.76894 18.63969 11212 ft 272 kts
2026-05-05 18:12 53.78754 18.64589 10973 ft 272 kts
2026-05-05 18:12 53.80608 18.65211 10718 ft 269 kts
2026-05-05 18:13 53.82428 18.65821 10481 ft 267 kts
2026-05-05 18:13 53.84259 18.66432 10241 ft 268 kts
2026-05-05 18:13 53.86091 18.67047 10000 ft 269 kts
2026-05-05 18:13 53.87916 18.67660 9749 ft 266 kts
2026-05-05 18:14 53.89695 18.68259 9498 ft 262 kts
2026-05-05 18:14 53.91492 18.68862 9246 ft 264 kts
2026-05-05 18:14 53.93288 18.69465 9012 ft 264 kts
2026-05-05 18:14 53.95076 18.70069 8776 ft 259 kts
2026-05-05 18:15 53.96836 18.70664 8555 ft 259 kts
2026-05-05 18:15 53.98613 18.71260 8326 ft 259 kts
2026-05-05 18:15 54.00360 18.71852 8099 ft 255 kts
2026-05-05 18:15 54.02107 18.72443 7875 ft 256 kts
2026-05-05 18:16 54.03853 18.73032 7653 ft 255 kts
2026-05-05 18:16 54.05594 18.73622 7437 ft 255 kts
2026-05-05 18:16 54.07286 18.74197 7214 ft 249 kts
2026-05-05 18:16 54.08991 18.74774 7007 ft 251 kts
2026-05-05 18:17 54.10705 18.75354 6798 ft 250 kts
2026-05-05 18:17 54.12410 18.75936 6578 ft 250 kts
2026-05-05 18:17 54.14093 18.76509 6368 ft 244 kts
2026-05-05 18:17 54.15765 18.77075 6157 ft 245 kts
2026-05-05 18:18 54.17436 18.77644 5955 ft 245 kts
2026-05-05 18:18 54.19104 18.78214 5753 ft 244 kts
2026-05-05 18:18 54.20727 18.78764 5546 ft 238 kts
2026-05-05 18:18 54.22341 18.78585 5209 ft 229 kts 334°
2026-05-05 18:19 54.23729 18.77394 4910 ft 219 kts 341°
2026-05-05 18:19 54.25173 18.77014 4637 ft 206 kts 349°
2026-05-05 18:19 54.26511 18.76372 4373 ft 194 kts 340°
2026-05-05 18:19 54.27769 18.75712 4136 ft 185 kts 341°
2026-05-05 18:20 54.28987 18.75028 3896 ft 179 kts 343°
2026-05-05 18:20 54.30157 18.74411 3664 ft 173 kts 341°
2026-05-05 18:20 54.31146 18.73376 3315 ft 175 kts 304°
2026-05-05 18:20 54.31654 18.71381 2890 ft 181 kts 294°
2026-05-05 18:21 54.32114 18.69550 3080 ft 160 kts 292°
2026-05-05 18:21 54.32524 18.67740 3353 ft 173 kts 296°
2026-05-05 18:21 54.32996 18.65870 3556 ft 163 kts 293°
2026-05-05 18:21 54.33421 18.64137 3481 ft 154 kts 295°
2026-05-05 18:22 54.33842 18.62432 3309 ft 158 kts 292°
2026-05-05 18:22 54.34262 18.60687 3048 ft 160 kts 294°
2026-05-05 18:22 54.34678 18.58953 2720 ft 155 kts 295°
2026-05-05 18:22 54.34993 18.57700 2414 ft 152 kts 296°
2026-05-05 18:23 54.35403 18.56060 1979 ft 149 kts 296°
2026-05-05 18:23 54.35818 18.54421 1460 ft 154 kts 297°
2026-05-05 18:23 54.36245 18.52729 1068 ft 153 kts 295°
2026-05-05 18:23 54.36665 18.51038 794 ft 154 kts 294°
2026-05-05 18:24 54.37066 18.49411 570 ft 140 kts 294°
2026-05-05 18:24 54.37401 18.48064 474 ft 84 kts 293°
2026-05-05 18:24 54.37541 18.47492 471 ft 44 kts 292°
2026-05-05 18:24 54.37671 18.47023 463 ft 43 kts 301°
2026-05-05 18:25 54.37832 18.46726 464 ft 16 kts 326°
2026-05-05 18:25 54.37853 18.46703 464 ft 0 kts 325°
2026-05-05 18:25 54.37856 18.46700 464 ft 3 kts 328°
2026-05-05 18:26 54.37879 18.46706 465 ft 1 kts 41°
2026-05-05 18:26 54.37891 18.46779 465 ft 14 kts 82°
2026-05-05 18:26 54.37916 18.46828 465 ft 4 kts 24°
2026-05-05 18:26 54.37951 18.46855 465 ft 6 kts 23°
2026-05-05 18:27 54.37995 18.46886 465 ft 6 kts 22°
2026-05-05 18:27 54.37997 18.46887 465 ft 0 kts 22°